Other Public Products
Issued by NWS Grand Forks, ND

Home | Current Version | Previous Version | Graphics & Text | Print | Product List | Glossary On
Versions: 1 2 3 4 5 6 7 8 9 10 11 12 13 14 15 16 17 18 19 20 21 22 23 24 25 26 27 28 29 30 31 32 33 34 35 36 37 38 39 40 41 42 43 44 45 46 47 48 49 50
000
FPUS83 KFGF 300731
OPUFGF
PRAIRIE TO PINES WEATHER ROUNDUP
NATIONAL WEATHER SERVICE EASTERN NORTH DAKOTA/GRAND FORKS ND
200 AM CDT WED JUL 30 2014

 **SATELLITE DATA USED TO AUGMENT SKY COVER AT AUTOMATED STATIONS**
 *****  WEATHER ACROSS EASTERN NORTH DAKOTA  *****

CITY           SKY/WX    TMP DP  RH WIND       PRES   REMARKS
GRAND FORKS    CLEAR     56  54  93 W6        30.10F
GRAND FORKS AF CLEAR     57  56  99 W3        30.12S
GRAND CITY NWS   N/A     41 N/A N/A NW5         N/A
BUXTON           N/A     58  57  96 W2          N/A
DEVILS LAKE    CLEAR     57  52  82 CALM      30.13S
FARGO          CLEAR     57  54  89 CALM      30.11S
WAHPETON ARPT  SUNNY     54  50  87 NW3       30.12S
$$

 *****  WEATHER ACROSS CENTRAL AND WESTERN NORTH DAKOTA  *****

CITY           SKY/WX    TMP DP  RH WIND       PRES   REMARKS
JAMESTOWN      CLEAR     56  51  84 CALM      30.15S
BISMARCK       CLEAR     61  31  32 CALM      30.17S
MINOT          CLEAR     62  59  90 SW6       30.16R
MINOT AFB      CLEAR     60  60  99 W6        30.15S
GARRISON         N/A     58  56  93 CALM      30.17S
WILLISTON      CLEAR     61  57  87 N5        30.18S
DICKINSON      CLEAR     57  55  93 NE3       30.17S
HETTINGER      CLEAR     58  54  86 E7        30.17F
$$

 *****  OTHER OBSERVATIONS NORTHEAST NORTH DAKOTA  *****

CITY           SKY/WX    TMP DP  RH WIND       PRES   REMARKS
WALHALLA         N/A     52  52 100 SW3         N/A
LANGDON        FOG       48  48 100 CALM      30.15S VSB 1/4
CAVALIER       FAIR      55  52  88 W3        30.11S
GRAFTON        FAIR      55  55 100 W5        30.11S
CANDO          FAIR      52  50  93 NW3       30.16R
FORT TOTTEN      N/A     56  53  90 CALM      29.95S
ROLLA          FAIR      50  50 100 W5        30.17S
RUGBY          FAIR      54  54 100 CALM      30.15S FOG
 ***** THE ABOVE OBSERVATIONS ARE NON NWS ARE NOT QUALITY
        CONTROLLED AND MAY MIS-REPORT RAIN FOR SNOW...
$$

 *****  OTHER OBSERVATIONS SOUTHEAST NORTH DAKOTA *****

CITY           SKY/WX    TMP DP  RH WIND       PRES   REMARKS
COOPERSTOWN    NOT AVBL
VALLEY CITY    FAIR      55  55 100 CALM      30.14S
OAKES          NOT AVBL
GWINNER        SUNNY     57  54  88 NW5       30.14F
SHEYENNE NWR     N/A     51  50  97 CALM      29.95S
BUFFALO          N/A     56  52  88 NW2         N/A
WYNDMERE       NOT AVBL
 ***** THE ABOVE OBSERVATIONS ARE NON NWS ARE NOT QUALITY
       CONTROLLED AND MAY MIS-REPORT RAIN FOR SNOW...
$$

  *****  WEATHER ACROSS NORTHERN MINNESOTA  *****

CITY           SKY/WX    TMP DP  RH WIND       PRES   REMARKS
FLAG ISLAND    CLEAR     66  57  72 NW10      30.05S
WARROAD        CLEAR     61  55  82 W8        30.08S
ROSEAU         CLEAR     61  55  82 W6        30.08F
HALLOCK        CLEAR     57  54  88 CALM      30.10S
THF RVR FALLS  CLEAR     61  55  82 CALM      30.11S
HALSTAD          N/A     55  52  88 W6          N/A
FOSSTON        CLEAR     52  46  82 CALM      30.12S
BAUDETTE       CLEAR     60  55  83 CALM      30.08R
WASKISH        CLEAR     61  55  82 CALM      30.07F
CROOKSTON      CLEAR     57  54  88 NW3       30.11S
$$
  *****  WEATHER ACROSS CENTRAL AND WEST MINNESOTA  *****

CITY           SKY/WX    TMP DP  RH WIND       PRES   REMARKS
BEMIDJI        CLEAR     57  54  90 W6        30.10S
PARK RAPIDS    CLEAR     55  52  89 CALM      30.10S
WADENA         CLEAR     55  54  94 CALM      30.10F
DETROIT LAKES  CLEAR     61  55  82 CALM      30.13S
MOORHEAD       CLEAR     59  57  94 CALM      30.12S
FERGUS FALLS   CLEAR     59  54  82 N3        30.12S
ELBOW LAKE     FAIR      61  56  84 CALM      30.12S
MORRIS MN      CLEAR     54  54 100 W5        30.11S
STAPLES        CLEAR     55  54  94 W3        30.10S
WHEATON        CLEAR     55  54  94 W3        30.14S
$$
  *****  WEATHER ELSEWHERE ACROSS MINNESOTA  *****

CITY           SKY/WX    TMP DP  RH WIND       PRES   REMARKS
DULUTH         CLEAR     56  53  90 N3        30.06S
INTRNTL FALLS  CLEAR     51  50  96 CALM      30.05F
ELY            FOG       46  45  93 CALM      30.07S VSB 1/4
CLOQUET        CLEAR     54  52  94 NW3       30.06S
BRAINERD       CLEAR     59  55  87 CALM      30.09S
HIBBING        CLEAR     51  50  96 CALM      30.07R FOG
ALEXANDRIA     CLEAR     62  55  77 NW5       30.13S
SAINT CLOUD    CLEAR     60  54  80 CALM      30.07F
MINNEAPOLIS    PTCLDY    63  56  78 NW6       30.06F
$$

  *****  WEATHER ACROSS SOUTH DAKOTA  *****

CITY           SKY/WX    TMP DP  RH WIND       PRES   REMARKS
SIOUX FALLS    CLEAR     55  53  93 CALM      30.15R
BROOKINGS      NOT AVBL
WATERTOWN      CLEAR     57  52  83 CALM      30.15S
HURON          CLEAR     54  52  93 CALM      30.15S
SISSETON         N/A     53  52  96 CALM      30.12S
ABERDEEN       CLEAR     52  51  97 CALM      30.14S
MITCHELL       CLEAR     56  53  90 CALM      30.15S
PIERRE         CLOUDY    62  56  80 CALM      30.14S
MOBRIDGE       PTCLDY    60  54  80 E6        30.14R
RAPID CITY     PTCLDY    56  50  80 CALM      30.21S
$$

  *****  SOME WEATHER IN NEARBY STATES *****

CITY           SKY/WX    TMP DP  RH WIND       PRES   REMARKS
GLASGOW MT     CLEAR     63  50  62 E12       30.17S
GREAT FALLS MT CLEAR     66  44  45 CALM      30.15S
CHEYENNE WY    LGT RAIN  55  54  96 NE10      30.32F
SCOTTSBLUFF NE LGT RAIN  65  61  87 N3        30.26S
OMAHA NE       PTCLDY    59  56  89 N3        30.13F
DES MOINES IA  CLEAR     62  56  80 CALM      30.10S
DAVENPORT IA   CLEAR     57  54  89 W6        30.06S
CHICAGO IL     PTCLDY    61  54  77 W8        30.00F
EAU CLAIRE WI  PTCLDY    59  57  93 CALM      30.04S
LA CROSSE WI   CLEAR     61  59  93 SE3       30.03F
$$

  *****  SOME NATIONAL WEATHER *****

CITY           SKY/WX    TMP DP  RH WIND       PRES   REMARKS
LA GUARDIA NY  CLOUDY    68  53  58 NW6       29.96F
RALEIGH NC     MOCLDY    67  60  78 N6        30.02R
ATLANTA GA     CLEAR     63  53  70 NW7       30.03S
NEW ORLEANS LA PTCLDY    79  64  60 NE12      30.04F
OKLAHOMA CITY  LGT RAIN  72  66  81 E7        30.06F
ALBUQUERQUE NM CLOUDY    69  61  75 SE8       30.21F
SALT LAKE CITY CLOUDY    69  61  75 SE8       30.16S
LOS ANGELES CA MOCLDY    69  62  78 SW6       29.97S
BOISE ID       MOCLDY    75  55  49 SE21G26   30.12F
SEATTLE WA     CLEAR     70  53  54 NE8       30.10S
$$

*** WEATHER ACROSS MANITOBA...SASKATCHEWAN AND ONTARIO ***
                ***ONTARIO***

CITY           SKY/WX    TMP DP  RH WIND       PRES   REMARKS
GERALDTON      CLOUDY    52  52 100 W6        29.99F FOG
THUNDER BAY    CLEAR     46  45  93 W5        30.04F
SIOUX LOOKOUT  CLEAR     46  46 100 CALM      30.04S
TORONTO        MOCLDY    59  55  88 S3        29.93S
BIG TROUT LK   MOCLDY    55  48  76 N5        29.99F
PICKLE LAKE    NOT AVBL
DRYDEN         CLEAR     59  57  94 SW5       30.05S
KENORA         MOCLDY    64  55  72 NW3       30.06
$$
                *** MANITOBA***

CITY           SKY/WX    TMP DP  RH WIND       PRES   REMARKS
BRANDON        CLEAR     55  54  94 N2        30.14S
DAUPHIN        CLEAR     57  54  88 W9        30.11S
ISLAND LAKE    CLEAR     55  50  82 CALM      30.06S
PILOT MOUND      N/A     54  52  94 SW3         N/A
THE PAS        CLEAR     66  57  72 CALM      30.06R
THOMPSON       PTCLDY    54  54 100 CALM      30.06R
WINNIPEG       PTCLDY    55  54  94 W8        30.10S
LYNN LAKE      CLEAR     59  54  82 W3        30.07S
CHURCHILL      CLEAR     52  50  93 S6        30.07S
GILLAM         CLEAR     50  48  93 E2        30.05S
$$
                ***SASKATCHEWAN***

CITY           SKY/WX    TMP DP  RH WIND       PRES   REMARKS
ESTEVAN        PTCLDY    54  52  94 N5        30.19R
KINDERSLEY     CLEAR     64  59  82 SE12      30.12S
LLOYDMINSTER   CLEAR     64  61  88 SE9       30.11S
PRINCE ALBERT  PTCLDY    57  55  94 E2        30.13F
REGINA         CLEAR     59  55  88 SE6       30.19S


USA.gov is the U.S. government's official web portal to all federal, state and local government web resources and services.